EW7237 Weather Reports


Display with metric or nautical units.
time (UTC)temp
F
wind
direction
speed
MPH
gust
MPH
rain 1hr
in
rain 24hr
in
rain mn
in
humidity
%
barometer
mb
20190917140029 67 344 6.0 15.0 0.00 0.01 0.01 66 1015.9
20190917134520 68 327 6.0 13.0 0.00 0.01 0.01 67 1015.9
20190917133034 67 328 5.0 14.0 0.00 0.01 0.01 65 1015.9
20190917131524 68 346 8.0 12.0 0.00 0.01 0.01 64 1016.0
20190917130009 68 313 6.0 11.0 0.00 0.01 0.01 65 1016.0
20190917124543 68 309 3.0 10.0 0.00 0.01 0.01 64 1015.8
20190917123006 69 293 5.0 13.0 0.00 0.01 0.01 63 1015.9
20190917121513 69 315 6.0 12.0 0.00 0.01 0.01 62 1015.9
20190917120003 69 315 4.0 12.0 0.00 0.01 0.01 60 1016.1
20190917113259 68 308 6.0 11.0 0.00 0.01 0.01 62 1016.3
20190917111823 69 328 7.0 12.0 0.00 0.01 0.01 62 1016.5
20190917104808 69 338 4.0 8.0 0.00 0.01 0.01 62 1016.5
20190917103156 69 305 2.0 7.0 0.00 0.01 0.01 60 1016.5
20190917101646 67 297 4.0 8.0 0.00 0.01 0.01 63 1016.6
20190917100119 67 323 3.0 7.0 0.00 0.01 0.01 64 1016.6
20190917094703 67 325 6.0 9.0 0.00 0.01 0.01 63 1016.7
20190917093109 66 243 1.0 6.0 0.00 0.01 0.01 66 1016.7
20190917091605 66 310 1.0 6.0 0.00 0.01 0.01 65 1016.8
20190917090128 65 295 2.0 7.0 0.00 0.01 0.01 64 1016.7
20190917084635 65 13 0.0 7.0 0.00 0.01 0.01 69 1016.6
20190917083136 65 7 2.0 7.0 0.00 0.01 0.01 69 1016.6
20190917081641 65 316 0.0 4.0 0.00 0.01 0.01 68 1016.6
20190917080156 65 264 0.0 4.0 0.00 0.01 0.01 69 1016.6
20190917074613 64 241 0.0 1.0 0.00 0.01 0.01 76 1016.5
20190917073059 63 158 0.0 0.0 0.00 0.01 0.01 78 1016.6
20190917071613 61 158 0.0 0.0 0.00 0.01 0.01 83 1016.5
20190917070101 59 158 0.0 1.0 0.00 0.01 0.01 88 1016.7
20190917064539 59 158 0.0 0.0 0.00 0.02 0.01 96 1016.7
20190917063109 58 158 0.0 0.0 0.00 0.02 0.01 97 1016.7
20190917061633 57 158 0.0 0.0 0.00 0.02 0.01 97 1016.8
20190917060125 56 158 0.0 0.0 0.00 0.02 0.01 97 1016.9
20190917054602 55 158 0.0 0.0 0.00 0.02 0.01 97 1016.8
20190917053038 55 158 0.0 0.0 0.00 0.02 0.01 97 1016.7
20190917051550 55 158 0.0 0.0 0.00 0.02 0.01 97 1016.4
20190917050041 55 158 0.0 0.0 0.00 0.02 0.01 97 1016.4
20190917044556 54 158 0.0 0.0 0.00 0.02 0.01 97 1016.4
20190917043059 55 158 0.0 0.0 0.00 0.02 0.01 97 1016.3
20190917041559 55 158 0.0 0.0 0.00 0.02 0.01 96 1016.2
20190917040028 56 158 0.0 0.0 0.00 0.02 0.01 96 1016.3
20190917034546 56 158 0.0 0.0 0.00 0.02 0.01 97 1016.3
20190917033028 57 158 0.0 0.0 0.00 0.02 0.01 97 1016.2
20190917031554 56 158 0.0 0.0 0.00 0.02 0.01 96 1016.1
20190917030019 57 158 0.0 0.0 0.00 0.02 0.01 96 1016.1
20190917024524 57 158 0.0 0.0 0.00 0.02 0.01 96 1016.1
20190917023052 57 158 0.0 0.0 0.00 0.02 0.01 96 1016.1
20190917021518 57 158 0.0 0.0 0.00 0.02 0.01 96 1016.2
20190917020049 57 158 0.0 0.0 0.00 0.02 0.01 96 1016.2
20190917014524 58 158 0.0 0.0 0.00 0.02 0.01 96 1016.2
20190917013041 58 158 0.0 0.0 0.00 0.02 0.01 95 1016.1
20190917011508 59 158 0.0 0.0 0.00 0.02 0.01 96 1016.2
20190917010004 59 158 0.0 0.0 0.00 0.02 0.01 96 1016.2
20190917004503 59 158 0.0 0.0 0.00 0.02 0.01 95 1016.1
20190917003335 59 158 0.0 0.0 0.00 0.02 0.01 95 1016.2
20190917001751 60 158 0.0 0.0 0.01 0.02 0.01 95 1016.4
20190917000153 60 158 0.0 0.0 0.01 0.02 0.01 95 1016.6
20190916234722 60 158 0.0 0.0 0.01 0.02 0.01 95 1016.4
20190916233213 60 158 0.0 0.0 0.01 0.02 0.01 95 1016.5
20190916231835 60 158 0.0 0.0 0.00 0.01 0.00 95 1016.6
20190916230154 61 158 0.0 0.0 0.00 0.01 0.00 94 1016.6
20190916224643 61 158 0.0 0.0 0.00 0.01 0.00 94 1016.8
20190916223207 61 158 0.0 0.0 0.00 0.00 0.00 95 1016.9
20190916221725 61 146 0.0 1.0 0.00 0.01 0.00 95 1017.0
20190916220119 61 108 0.0 0.0 0.00 0.01 0.00 95 1017.0
20190916214616 61 108 0.0 0.0 0.00 0.01 0.01 95 1017.1
20190916213131 61 108 0.0 1.0 0.00 0.01 0.01 95 1017.0
20190916211619 61 107 0.0 0.0 0.00 0.01 0.01 94 1017.1
20190916210234 61 107 0.0 0.0 0.00 0.01 0.01 94 1017.2
20190916204702 61 108 0.0 0.0 0.00 0.01 0.01 93 1017.1
20190916203200 61 107 0.0 0.0 0.00 0.01 0.01 93 1017.2
20190916201651 62 108 0.0 0.0 0.00 0.01 0.01 92 1016.9
20190916200128 62 114 0.0 1.0 0.00 0.01 0.01 90 1017.0
20190916194605 63 115 0.0 1.0 0.00 0.01 0.01 88 1017.0
20190916193146 63 286 0.0 1.0 0.00 0.01 0.01 86 1017.1
20190916191620 63 286 0.0 1.0 0.00 0.01 0.01 85 1016.8
20190916190125 63 286 0.0 1.0 0.00 0.01 0.01 85 1016.8
20190916184712 64 286 0.0 0.0 0.00 0.01 0.01 84 1016.7
20190916183148 64 286 0.0 0.0 0.00 0.01 0.01 83 1016.4
20190916181638 65 286 0.0 0.0 0.00 0.01 0.01 81 1016.3
20190916180151 66 286 0.0 0.0 0.00 0.01 0.01 78 1016.4
20190916174554 68 286 0.0 0.0 0.00 0.01 0.01 75 1016.2
20190916173105 70 286 0.0 1.0 0.00 0.01 0.01 69 1016.2
20190916171704 72 286 0.0 1.0 0.00 0.01 0.01 64 1016.1
20190916170112 74 274 0.0 5.0 0.00 0.01 0.01 57 1016.0
20190916164622 74 292 1.0 4.0 0.00 0.01 0.01 56 1015.9
20190916163055 75 287 3.0 9.0 0.00 0.01 0.01 54 1016.0
20190916161620 76 281 1.0 9.0 0.00 0.01 0.01 53 1015.9
20190916160102 76 264 3.0 7.0 0.00 0.01 0.01 53 1016.0
20190916154642 77 314 3.0 9.0 0.00 0.01 0.01 52 1016.0
20190916153043 77 287 0.0 6.0 0.00 0.01 0.01 53 1016.1
20190916151551 77 332 4.0 11.0 0.00 0.01 0.01 51 1016.2
20190916150043 77 295 3.0 8.0 0.00 0.01 0.01 51 1016.3
20190916144539 77 323 3.0 9.0 0.00 0.01 0.01 52 1016.4
20190916143026 77 274 4.0 8.0 0.00 0.01 0.01 50 1016.5
20190916141610 78 313 7.0 11.0 0.00 0.01 0.01 48 1016.5